Flag for Spain

Past Weather in A Coruña, Spain — Yesterday and Last 2 Weeks

Now
63 °F

Mild.


Feels Like: 63 °F
Forecast: 69 / 62 °F
Wind: 9 mph from Northeast

Location: La Coruna

Current Time: Jul 13, 2020 at 8:38:02 am

Latest Report: Jul 13, 2020 at 7:00 am


Visibility: 13 mi

Pressure: 30.22 "Hg

Humidity: 81%

Dew Point: 57 °F

Location of A CoruñaLocation

Past Weather in A Coruña — Graph

°F

A Coruña Temperature Yesterday

Maximum temperature yesterday: 79 °F (at 1:00 pm)
Minimum temperature yesterday: 65 °F (at 7:00 am)
Average temperature yesterday: 70 °F

High & Low Weather Summary for the Past Weeks

 TemperatureHumidityPressure
High79 °F (Jul 12, 1:00 pm)100% (Jul 5, 6:00 am)30.30 "Hg (Jul 5, 6:00 am)
Low56 °F (Jul 3, 7:00 am)51% (Jul 7, 2:00 pm)29.95 "Hg (Jun 30, 8:00 pm)
Average65 °F81%30.14 "Hg
* Reported Jun 28 7:00 am — Jul 13 7:00 am, A Coruña. Weather by CustomWeather, © 2020

Note: Actual official high and low records may vary slightly from our data, if they occured in-between our weather recording intervals... More about our weather records

A Coruña Weather History for the Previous 24 Hours

Scroll right to see more
 ConditionsComfort  
Time TempWeatherWind HumidityBarometerVisibility
7:00 am
Mon, Jul 13
63 °FMild.9 mph81%30.22 "Hg12 mi
6:00 am64 °FMild.9 mph81%30.20 "Hg12 mi
5:00 am63 °FClear.8 mph82%30.20 "Hg9 mi
4:00 am64 °FMild.10 mph79%30.20 "Hg12 mi
3:00 am65 °FMild.10 mph78%30.20 "Hg12 mi
2:00 am64 °FClear.7 mph79%30.21 "Hg9 mi
1:00 am65 °FMild.9 mph75%30.21 "Hg12 mi
12:00 am67 °FMild.12 mph73%30.21 "Hg12 mi
11:00 pm
Sun, Jul 12
68 °FPassing clouds.15 mph70%30.18 "Hg16 mi
10:00 pm70 °FMild.16 mph64%30.16 "Hg12 mi
9:00 pm73 °FMild.14 mph60%30.13 "Hg12 mi
8:00 pm74 °FFog.15 mph58%30.11 "Hg12 mi
7:00 pm71 °FMild.10 mph69%30.10 "Hg12 mi
6:00 pm68 °FMild.12 mph76%30.10 "Hg12 mi
5:00 pm68 °FMild.8 mph76%30.09 "Hg12 mi
4:00 pm68 °FMild.12 mph76%30.09 "Hg12 mi
3:00 pm72 °FMild.10 mph69%30.08 "Hg12 mi
2:00 pm75 °FPassing clouds.5 mph63%30.07 "Hg14 mi
1:00 pm79 °FWarm.6 mph56%30.07 "Hg12 mi
12:00 pm76 °FMild.6 mph61%30.06 "Hg12 mi
11:00 am74 °FPassing clouds.6 mph66%30.07 "Hg12 mi
10:00 am72 °FMild.5 mph70%30.06 "Hg12 mi
9:00 am69 °FMild.5 mph77%30.05 "Hg12 mi
8:00 am66 °FPassing clouds.6 mph83%30.05 "Hg11 mi
Weather by CustomWeather, © 2020

See weather overview